Regional Weather Roundup
Issued by NWS San Diego, CA

Home | Current Version | Previous Version | Text Only | Print | Product List | Glossary On
Versions: 1 2 3 4 5 6 7 8 9 10 11 12 13 14 15 16 17 18 19 20 21 22 23 24 25 26 27 28 29 30 31 32 33 34 35 36 37 38 39 40 41 42 43 44 45 46 47 48 49 50
000
ASUS46 KSGX 060011
RWRSGX

SAN DIEGO HOURLY WEATHER ROUNDUP
NATIONAL WEATHER SERVICE SAN DIEGO CA
500 PM PDT SUN JUL 05 2015

NOTE: "FAIR" INDICATES FEW OR NO CLOUDS BELOW 12,000 FEET WITH NO
SIGNIFICANT WEATHER AND/OR OBSTRUCTIONS TO VISIBILITY.

CAZ042-043-060-061-PZZ750-775-060100-

GREATER SAN DIEGO AREA

CITY           SKY/WX    TMP DP  RH WIND       PRES   REMARKS
LINDBERGH FLD  CLOUDY    71  59  65 W10       29.98F
POINT LOMA       N/A     69  60  73 W8          N/A
NATIONAL CITY    N/A     71  63  75 W6        29.98S
CHULA VISTA      N/A     71  64  79 W6        29.91S
IMPERIAL BEACH CLOUDY    71  60  68 W10       29.98S
BROWN FIELD    CLOUDY    69  60  73 W10       29.97F
MIRAMAR MCAS   CLOUDY    72  59  63 W8        29.97F
MONTGOMERY FLD CLOUDY    70  60  70 NW9       29.97F

$$

NORTH SAN DIEGO COUNTY

CITY           SKY/WX    TMP DP  RH WIND       PRES   REMARKS
CAMP PENDLETON SUNNY     72  59  63 SW12G18   29.95F
OCEANSIDE AP   CLOUDY    70  60  70 SW10      29.95S
OCEANSIDE HBR    N/A     68  63  83 SW6       29.99S
VISTA            N/A     71  62  75 W6        29.94S
CARLSBAD       CLOUDY    68  60  75 W7        29.96S
DEL MAR          N/A     68  63  83 W1        29.99F
LA JOLLA SCRIP   N/A    N/A N/A N/A SW3       29.95S
FALLBROOK        N/A     75  64  67 S7        29.95S
ESCONDIDO        N/A     74  63  68 W7        29.96S
SAN MARCOS       N/A     70  63  76 W9        29.94F
POWAY            N/A     75  63  66 W3        29.96S

$$

EAST SAN DIEGO COUNTY

CITY           SKY/WX    TMP DP  RH WIND       PRES   REMARKS
RAMONA         SUNNY     75  60  59 W12       29.97S
SANTEE LAKES     N/A     73  63  69 W9        29.95S
LA MESA          N/A     72  62  70 W3        29.72S
JAMUL            N/A     76  63  63 W3        29.94S
DESCANSO N       N/A     77  61  57 W3        29.79S
CAMPO            N/A     78  59  51 SW16G25   29.95F

$$

ORANGE COUNTY AND THE LOS ANGELES BASIN

CITY           SKY/WX    TMP DP  RH WIND       PRES   REMARKS
JOHN WAYNE AP  MOSUNNY   71  59  65 SW6       29.95F
LAKE FOREST FR   N/A     78  58  51 W5        29.84S
SANTA ANA        N/A     78  63  60 SW6       29.90S
HUNTINGTON BCH   N/A     72  64  76 W6        29.97F
LOS ALAMITOS   FAIR      73  61  66 SW14      29.94F
FULLERTON      SUNNY     76  60  57 VRB7G16   29.93F
LONG BEACH     SUNNY     75  60  59 SW9       29.94F
L.A. AP        CLOUDY    66  61  82 W12G18    29.96F
L.A. DOWNTOWN  MOSUNNY   71  60  68 VRB3      29.94F

$$

THE INLAND EMPIRE

CITY           SKY/WX    TMP DP  RH WIND       PRES   REMARKS
CORONA         CLOUDY    80  60  50 W15G24    29.91F
CHINO          MOSUNNY   82  59  45 W15       29.93F
ONTARIO        MOSUNNY   82  58  43 W14G22    29.92F
SAN BERNARDINO SUNNY     86  52  30 W12       29.92S
RIVERSIDE AP   SUNNY     82  59  45 W16       29.92S
MORENO VALLEY    N/A     88  62  41 SW6       29.89S
MARCH ARB      SUNNY     84  58  41 NW14      29.94R
HORSETHIEF CYN   N/A     84  57  39 NW12      29.93S
PERRIS           N/A     85  60  42 NW9         N/A
MENIFEE          N/A     86  64  46 SW7       29.96S
HEMET EAST       N/A     86  56  35 W3        29.92F
FRENCH VALLEY  FAIR      77  61  57 SW12      29.95S
TEMECULA         N/A     80  63  55 SW7       29.87F

$$

SAN BERNARDINO AND RIVERSIDE COUNTY MOUNTAINS

CITY           SKY/WX    TMP DP  RH WIND       PRES   REMARKS
BIG BEAR AP    MOSUNNY   73  46  38 SW9G21    30.23S
ANGELUS OAKS     N/A     79  55  42 CALM      29.73S
PINE COVE        N/A     73  55  53 W3        29.81S

$$

SOUTHERN DESERT INCLUDING THE COACHELLA VALLEY

CITY           SKY/WX    TMP DP  RH WIND       PRES   REMARKS
PALM SPRINGS   SUNNY    105  55  19 N10G20    29.76F HX 104
THOUSAND PALMS   N/A    103  64  27 S7        29.72F HX 106
PALM DESERT      N/A    103  68  31 E3        28.52S HX 110
THERMAL        MOSUNNY  105  61  23 SE7       29.69F HX 106
BLYTHE         SUNNY    106  63  24 S21       29.73F HX 109
IMPERIAL AP    MOSUNNY  105  57  20 SE24      29.71F HX 104
EL CENTRO NAS  MOSUNNY  106  54  17 SE17      29.73F HX 104
YUMA AZ        MOSUNNY  102  65  29 S16G23    29.75F HX 105
MEXICALI       MOSUNNY  100  50  18 SE14      29.75F HX  97

$$

UPPER DESERT

CITY           SKY/WX    TMP DP  RH WIND       PRES   REMARKS
VICTORVILLE AP SUNNY     97  43  15 S24       29.90S
HESPERIA         N/A     91  49  23 W10       29.86F
APPLE VALLEY     N/A     92  44  19 S18G30    29.96S
PALMDALE       SUNNY     93  41  16 W16G26    29.91F
LANCASTER      SUNNY     93  45  19 W15G24    29.91F
EDWARDS AFB    SUNNY     97  42  14 SW28G33   29.84F
DAGGETT        PTSUNNY   98  56  24 NE9       29.82S HX  96
29 PALMS N     MOSUNNY  101  51  18 SW24      29.88F HX  98
NEEDLES        SUNNY    109  53  15 S13       29.74F HX 107

$$

REGIONAL REPORTS

CITY           SKY/WX    TMP DP  RH WIND       PRES   REMARKS
SANTA BARBARA  SUNNY     69  58  67 W12       29.95F
SANDBERG       SUNNY     85  41  21 S16G26    30.08F
LAS VEGAS NV   CLOUDY    91  49  23 S17       29.82F
PHOENIX AZ     CLOUDY    92  65  40 S22G31    29.85S
TIJUANA        PTSUNNY   70  57  64 W8        30.00S
ENSENADA NW      N/A     69  32  25 W8        29.95S

$$

OFFSHORE ISLANDS

CITY           SKY/WX    TMP DP  RH WIND       PRES   REMARKS
CATALINA ARPT  CLOUDY    61  57  87 SW15      29.99F FOG
SAN NICOLAS IS CLOUDY   N/A N/A N/A W18       29.98F

$$

MARINE AND OFFSHORE BUOY REPORTS

STATION/POSITION SKY/WX   TEMP    WIND        PRES    SWELL
                          AIR SEA DIR/SP/G            HT/PER/DIR
                          (F)     (DEG/KT/KT) (MB)    (FT/S/D)
TANNER BANKS               65 67  300/  6/  8 1015.4F   3/210/15
S CLEMENTE BASIN           65 68  270/ 10/ 14 1014.9F   3/200/14
SAN NICOLAS IS.               65                N/A     3/180/15
SO. S. ROSA ISLA           63 66  280/  8/ 10 1014.3F   3/16
W. S. BARBARA CH           61 61  290/ 10/ 12 1014.1F   3/210/15
M. S. BARBARA CH           62 63  270/ 10/ 12 1015.0F
S. MONICA BASIN            64 68  260/ 10/ 12 1014.5F   2/180/16
S PEDRO CHANNEL               66                N/A     2/170/17
DANA POINT                    69                N/A     2/190/15
OCEANSIDE OFFSHR              70                N/A     2/210/14
TORREY PINES OTR              69                N/A     2/210/15
LA JOLLA 1                 68 70  290/  6/  9 1014.9F
MISSION BAY BUOY              70                N/A     2/200/15
SAN DIEGO BAY                 72              1015.5S
POINT LOMA SOUTH              70                N/A     3/190/15

$$



USA.gov is the U.S. government's official web portal to all federal, state and local government web resources and services.